Regional Weather Roundup
Issued by NWS

Home | Current Version | Previous Version | Graphics & Text | Print | Product List | Glossary On
Versions: 1 2 3 4 5 6 7 8 9 10 11 12 13 14 15 16 17 18 19 20 21 22 23 24 25 26 27 28 29 30 31 32 33 34 35 36 37 38 39 40 41 42 43 44 45 46 47 48 49 50
000
ASUS45 KTFX 010419
RWRMT
MONTANA HOURLY WEATHER ROUNDUP
NATIONAL WEATHER SERVICE GREAT FALLS MT
1019 PM MDT TUE SEP 30 2014

NOTE: "FAIR" INDICATES FEW OR NO CLOUDS BELOW 12000 FEET WITH NO
SIGNIFICANT WEATHER AND/OR OBSTRUCTIONS TO VISIBILITY.

* THESE STATIONS ARE NOT UNDER NWS QUALITY CONTROL. THEY DO NOT
   REPORT WEATHER SUCH AS PRECIPITATION OR FOG.

MTZ001>007-043-010500-
WEST OF THE DIVIDE
CITY           SKY/WX    TMP DP  RH WIND       PRES   REMARKS
KALISPELL      CLOUDY    46  45  96 CALM      29.93R
MISSOULA       MOCLDY    46  39  77 CALM      29.99R
BUTTE          MOCLDY    41  32  70 W9        29.97R
MULLAN PASS    MOCLDY    34  34 100 VRB6      29.98F WCI  29
* ESSEX        N/A       44  42  93 S2G7       N/A
* LINCOLN      N/A       44  35  71 W3G10      N/A
* LOOKOUT PASS N/A       36  36 100 S1         N/A
* POLSON       N/A       45  38  77 SE2        N/A
* RONAN APT    MOCLDY    48  39  71 N/A        N/A
* SEELEY LAKE  N/A       41  39  93 N1         N/A
* THOMP F APT  PTCLDY    41  29  62 N11G22     N/A
* YAAK HILL    N/A       44  41  89 E1         N/A
$$

MTZ008-052>055-010500-
SOUTHWEST MONTANA
CITY           SKY/WX    TMP DP  RH WIND       PRES   REMARKS
BOZEMAN        CLOUDY    46  36  68 W10       29.92R
DILLON         PTCLDY    45  27  49 W3        29.95R
W YELLOWSTONE  N/A       39  37  93 SW3       29.93R
* THREE FORKS  MOCLDY    50  50 100 NW10G25    N/A
* BOULDER HILL N/A       42  23  47 N6G12      N/A
* MONIDA PASS  N/A       38  29  70 NW13       N/A   WCI  30
* RAYNOLDS PAS N/A       39 -13  10 VRB8G14    N/A   WCI  33
* WHITEHALL    N/A       45  33  63 W6G13      N/A
* WISE RIVER   N/A       42  30  63 NW7G14     N/A
$$

MTZ009>010-012-014-046-048-049-054-010500-
EAST SLOPES AND CENTRAL MONTANA
CITY           SKY/WX    TMP DP  RH WIND       PRES   REMARKS
CUT BANK       CLOUDY    43  39  86 NW12      29.90R
GREAT FALLS    CLOUDY    46  45  96 NW12      29.87R
HELENA         MOCLDY    50  34  54 W14G21    29.91R
MALMSTROM AFB  CLOUDY    46  45  96 NW7       29.90R
* CONRAD       CLOUDY    45  45 100 W11        N/A
* DEARBORN     N/A       52  35  52 S3G8       N/A
* EAST GLACIER N/A       39  37  93 NE9        N/A   WCI  33
* MONARCH      N/A       41  38  89 N14G19     N/A
* PENDROY      N/A       41  40  96 N11G17     N/A
* ROGERS PASS  N/A       40  33  76 SE9G15     N/A   WCI  34
* SAINT MARY   N/A       39  38  96 S2         N/A
* SWEET GRASS  N/A       44  44 100 NW17G23    N/A
* WHITE SULPH  N/A       45  35  68 NW11G16    N/A
$$

MTZ011-013-016-021-035-040-045-047-050-051-010500-
NORTH CENTRAL MONTANA
CITY           SKY/WX    TMP DP  RH WIND       PRES   REMARKS
HAVRE          LGT RAIN  48  45  89 NW22      29.78R
LEWISTOWN      LGT RAIN  48  45  89 NW22G30   29.83R
* CHINOOK      CLOUDY    52  45  77 W18G25    29.75R
* FORT BENTON  CLOUDY    48  45  89 W13G20    29.86R
* DENTON       N/A       48  46  93 W16G26     N/A
* JUDITH GAP   N/A       46  41  83 N19G25     N/A
* LOMA         N/A       49  45  86 W10G17     N/A
$$

MTZ017>020-022>027-061-062-010500-
NORTHEAST MONTANA
CITY           SKY/WX    TMP DP  RH WIND       PRES   REMARKS
GLASGOW        CLOUDY    55  48  77 NW20G25   29.60R
GLENDIVE       CLOUDY    54  52  93 NW17G22   29.58R
JORDAN         CLOUDY    54  52  93 W13       29.65R
SIDNEY         CLOUDY    54  54 100 SW5       29.53S
WOLF POINT     CLOUDY    55  54  96 W14       29.55R
* BEAVER HILL  N/A       52  52 100 SW12       N/A
* CIRCLE       N/A       54  52  93 SW5G11     N/A
* LINDSAY DVD  N/A       51  51 100 W17        N/A
* NAVAJO       N/A       53  52  96 NW11G17    N/A
$$

MTZ028>042-056>058-010500-
SOUTHCENTRAL AND SOUTHEAST MONTANA
CITY           SKY/WX    TMP DP  RH WIND       PRES   REMARKS
BAKER          MOCLDY    52  52 100 W13       29.59R
BILLINGS       MOCLDY    54  41  62 NW16      29.78R
LIVINGSTON     CLOUDY    48  37  66 W15       29.86R
MILES CITY     CLOUDY    57  46  67 NW16      29.63R
* LAUREL APT   MOCLDY    55  37  51 W7         N/A
* ROUNDUP APT  CLOUDY    55  41  59 W17G23     N/A
* ALZADA       N/A       54  48  80 SW11       N/A
* HYSHAM       N/A       52  46  80 W13        N/A
* REED POINT   N/A       55  35  47 W17G22     N/A
* ROSCOE HILL  N/A       50  25  38 W6G15      N/A
$$

REGIONAL REPORTS...DAKOTAS
CITY           SKY/WX    TMP DP  RH WIND       PRES   REMARKS
WILLISTON      CLOUDY    52  48  86 CALM      29.50S
DICKINSON      FOG       52  50  93 W12       29.49R VSB 3
BEACH          N/A       50  50 100 W12G17    29.54S
CROSBY         N/A      N/A N/A N/A N/A        N/A
TIOGA          FOG       48  48 100 CALM      29.51F
WATFORD CITY   FOG       48  48 100 NW3       29.47F
BISMARCK       CLOUDY    55  55 100 SW14      29.42R
GRAND FORKS    CLOUDY    57  48  72 SE23G32   29.57F
FARGO          LGT RAIN  61  52  72 SE29G38   29.60F
BUFFALO SD     MOCLDY    54  52  93 W14       29.56R
RAPID CITY     MOCLDY    54  45  72 NW3       29.70R
$$

REGIONAL REPORTS...WYOMING/IDAHO/WASHINGTON
CITY           SKY/WX    TMP DP  RH WIND       PRES   REMARKS
GILLETTE       CLOUDY    48  45  89 W8        29.77R
SHERIDAN       CLOUDY    52  45  77 NW5       29.77R
CODY           CLOUDY    50  45  83 E3        29.84R
YELLOWSTONE LA CLOUDY    34  32  92 CALM      29.97R
SALMON         CLOUDY    46  34  63 N3        30.00R
MULLAN PASS    MOCLDY    34  34 100 VRB6      29.98S WCI  29
SAND POINT     FOG       41  41 100 CALM      29.96R
SPOKANE        FAIR      46  36  68 W8        29.98R
$$

REGIONAL REPORTS...ALBERTA
CITY           SKY/WX    TMP DP  RH WIND       PRES   REMARKS
CALGARY        FAIR      43  36  76 NW6       29.86R
LETHBRIDGE     CLOUDY    45  43  93 SW15      29.86S
MEDICINE HAT   LGT RAIN  48  46  93 SW7       29.79S
EDMONTON       PTCLDY    43  34  71 NW6       29.80R
WATERTON GATE  N/A       39  37  93 SW5        N/A   WCI  35
CARDSTON       N/A       43  39  86 W12        N/A
MILK RIVER     N/A       45  41  86 W16        N/A
$$

REGIONAL REPORTS...SASKATCHEWAN
CITY           SKY/WX    TMP DP  RH WIND       PRES   REMARKS
SWIFT CURRENT  LGT RAIN  52  48  86 NW21G26   29.61S
REGINA         LGT RAIN  50  48  93 SE6       29.51F
VAL MARIE      N/A       52  46  80 NW14G20    N/A
ASSINIBOIA     N/A       52  50  93 NW18       N/A
CORONACH       N/A       52  50  93 NW15G24    N/A

$$




USA.gov is the U.S. government's official web portal to all federal, state and local government web resources and services.